Tracking 30692 objects as of 16-Jun-2025
HD Live streaming from Space Station
objects crossing your sky now

SL-12 R/B(2)

Track SL-12 R/B(2) now!


NORAD ID: 14117
Int'l Code: 1982-009F
Perigee: 35,429.5 km
Apogee: 35,760.0 km
Inclination: 7.3 °
Period: 1,425.9 minutes
Semi major axis: 41965 km
RCS: 2.3838 m2 (large)
Launch date: February 5, 1982
Source: Commonwealth of Independent States (former USSR) (CIS)
Launch site: TYURATAM MISSILE AND SPACE COMPLEX (TTMTR)

Note: This is a ROCKET BODY
Your satellite tracking list
Your tracking list is empty




NASA's NSSDC Master Catalog

Two Line Element Set (TLE):
1 14117U 82009F   25167.41853609 -.00000265  00000-0  00000-0 0  9994
2 14117   7.3036 296.9958 0039372 189.4579 212.2627  1.00985887119740
Source of the keplerian elements: AFSPC